Location: Benalto
(52.3088°N, 114.2787°W)
Time: 10:48:18
(UTC+00:00)

N. Korean satellite - Pass Details

Date: 09 December 2021
Orbit: 447 x 491 km, 97.3° (Epoch: 20 January)

Event Time Altitude Azimuth Distance (km) Brightness Sun altitude
Rises 13:22:19 0° 10° (N) 2,467 10.1 -19.0°
Reaches altitude 10° 13:24:23 10° 6° (N) 1,588 9.1 -18.7°
Maximum altitude 13:27:42 56° 288° (WNW) 543 6.4 -18.2°
Drops below altitude 10° 13:31:01 10° 209° (SSW) 1,576 9.0 -17.7°
Sets 13:33:03 0° 205° (SSW) 2,446 10.0 -17.4°
